Regional Weather Roundup
Issued by NWS

Home | Current Version | Previous Version | Text Only | Print | Product List | Glossary On
Versions: 1 2 3 4 5 6 7 8 9 10 11 12 13 14 15 16 17 18 19 20 21 22 23 24 25 26 27 28 29 30 31 32 33 34 35 36 37 38 39 40 41 42 43 44 45 46 47 48 49 50
000
ASUS43 KBIS 181010
RWRND

NORTH DAKOTA REGIONAL WEATHER ROUNDUP
NATIONAL WEATHER SERVICE BISMARCK ND
400 AM CST THU JAN 18 2018

NOTE: "FAIR" INDICATES FEW OR NO CLOUDS BELOW 12,000 FEET WITH NO
SIGNIFICANT WEATHER AND/OR OBSTRUCTIONS TO VISIBILITY.


NDZ001>003-009>011-017-181100-
NORTHWEST NORTH DAKOTA

CITY           SKY/WX    TMP DP  RH WIND       PRES   REMARKS
WILLISTON      PTCLDY    19  15  84 S5        29.83F WCI  12
MINOT          CLOUDY    27  18  69 SW14      29.78F WCI  16
MINOT AFB      CLOUDY    22  16  77 W14       29.77F WCI   9
$$

NDZ018>021-031>035-040>046-181100-
SOUTHWEST NORTH DAKOTA

CITY           SKY/WX    TMP DP  RH WIND       PRES   REMARKS
BISMARCK       CLEAR     23  19  85 W5        29.87F WCI  17
DICKINSON      PTCLDY    21  15  78 W15       29.83F WCI   8
GARRISON         N/A     21  15  78 W6        29.82F WCI  13
HETTINGER ARPT MOCLDY    31  19  61 W13       29.89F
$$

NDZ004>008-012>016-024-026-027-054-181100-
NORTHEAST NORTH DAKOTA

CITY           SKY/WX    TMP DP  RH WIND       PRES   REMARKS
GRAND FORKS    FAIR      32  23  69 W15       29.77S
GRND FRKS AFB  FAIR      32  21  64 W13       29.77S
DEVILS LAKE    FAIR      25  19  78 W12       29.79F WCI  14
$$

NDZ022-023-025-028>030-036>039-047>053-181100-
SOUTHEAST NORTH DAKOTA

CITY           SKY/WX    TMP DP  RH WIND       PRES   REMARKS
FARGO          FAIR      31  23  72 SW16G24   29.82F WCI  20
JAMESTOWN      CLEAR     31  22  69 W16       29.82F WCI  20
$$




USA.gov is the U.S. government's official web portal to all federal, state and local government web resources and services.